Flag for U.S.A. Weather past 2 weeks in Asheville, North Carolina, U.S.A.

Now
70 °F

Low clouds.


Feels Like: 67 °F
Forecast: 67 / 83 °F
Wind: 3 mph from North

Location: Asheville Regional Airport

Current Time: Jul 28, 2015 at 6:28:22 AM

Latest Report: Jul 28, 2015 at 6:02 AM


Visibility: 8 mi

Pressure: 30.08 "Hg (27.90 "Hg at 647m altitude)

Humidity: 90%

Dew point: 67 °F

Location of AshevilleLocation

Historic Weather in Asheville — Graph

°F

Asheville temperature yesterday

Maximum temperature yesterday: 87 °F (at 2:54 PM)
Minimum temperature yesterday: 68 °F (at 4:54 AM)
Average temperature yesterday: 75 °F

Past Weeks' High & Low Weather Summary

 TemperatureHumidityPressure
High90 °F (Jul 13, 3:54 PM)96% (Jul 26, 7:54 AM)30.13 "Hg (Jul 26, 7:54 AM)
Low64 °F (Jul 14, 5:56 AM)39% (Jul 13, 4:54 PM)29.73 "Hg (Jul 14, 6:54 PM)
Average75 °F75%29.94 "Hg
* Reported Jul 13 4:54 AM — Jul 28 4:54 AM, Asheville, Weather by CustomWeather, © 2015

Note: Actual official high and low records may vary slightly from our data, if they occured in-between our weather recording intervals... More about our weather records

Advertising

Asheville weather history for previous 24 hours

 ConditionsComfort  
Time TempWeatherWind HumidityBarometerVisibility
4:54 AM
Tue, Jul 28
69 °FClear.No wind93%29.99 "Hg8 mi
3:54 AM70 °FClear.No wind90%30.00 "Hg9 mi
2:54 AM71 °FPassing clouds.No wind90%30.00 "Hg10 mi
1:54 AM72 °FPassing clouds.No wind87%30.01 "Hg9 mi
12:54 AM72 °FOvercast.No wind87%30.02 "Hg10 mi
11:54 PM
Mon, Jul 27
73 °FPassing clouds.No wind84%30.02 "Hg10 mi
10:54 PM73 °FOvercast.No wind84%30.01 "Hg10 mi
9:54 PM74 °FClear.3 mph82%30.00 "Hg10 mi
8:54 PM76 °FSunny.5 mph77%29.98 "Hg10 mi
7:54 PM77 °FPassing clouds.5 mph77%29.98 "Hg10 mi
6:54 PM80 °FMostly cloudy.3 mph64%29.96 "Hg10 mi
4:54 PM82 °FCloudy.7 mph58%29.96 "Hg10 mi
3:54 PM84 °FThundershowers. Partly sunny.9 mph55%29.96 "Hg10 mi
2:54 PM87 °FPartly sunny.3 mph50%29.96 "Hg10 mi
1:54 PM86 °FScattered clouds.7 mph48%29.99 "Hg10 mi
12:54 PM84 °FSunny.No wind53%30.01 "Hg10 mi
11:54 AM82 °FSunny.5 mph60%30.03 "Hg10 mi
10:54 AM78 °FSunny.No wind69%30.03 "Hg10 mi
9:54 AM73 °FSunny.No wind81%30.03 "Hg10 mi
8:54 AM71 °FSunny.3 mph84%30.03 "Hg10 mi
7:54 AM70 °FPassing clouds.No wind87%30.01 "Hg10 mi
6:54 AM68 °FClear.No wind90%30.00 "Hg8 mi
Weather by CustomWeather, © 2015

See weather overviewHow to use our weather pages